Location: F M Corners
(41.2198°N, 80.4709°W)
Time: 07:24:22
(UTC+00:00)

YAOGAN 1 - Pass Details

Date: 29 October 2020
Orbit: 618 x 620 km, 97.9° (Epoch: 28 November)

Event Time Altitude Azimuth Distance (km) Brightness Sun altitude
Rises 23:41:24 0° 154° (SSE) 2,883 5.8 -15.8°
Reaches altitude 10° 23:43:37 10° 149° (SSE) 1,982 4.9 -16.2°
Maximum altitude 23:47:48 52° 73° (ENE) 770 2.6 -17.0°
Drops below altitude 10° 23:52:01 10° 357° (N) 1,996 5.2 -17.8°
Sets 23:54:15 0° 353° (N) 2,906 6.1 -18.2°
